Lid_Strength_Index
-1 -0 0 3 11 12 15 13 10 11 10 7 6 7 9 8 9 12 2 1 0 0 -0 -1 -1 -1 -1 -1 -1 -1 -1 -1 -1 -1 -1 -1 -1 -1 -1 -1 -1 -1 -1 -1 -1 -1 -1 -1 -1
-0 0 2 6 13 16 15 11 11 9 8 6 6 7 8 9 5 4 3 1 -0 -0 -0 -0 -1 -1 -1 -1 -1 -1 -1 -1 -1 -1 -1 -1 -1 -1 -1 -1 -1 -1 -1 -1 -1 -1 -1 -1 -1
0 1 7 10 13 16 15 10 10 8 6 7 8 6 7 8 4 4 1 0 -0 0 0 -0 -1 -1 -1 -1 -1 -1 -1 -1 -1 -1 -1 -1 -1 -1 -1 -1 -1 -1 -1 -1 -1 -1 -1 -1 -1
2 4 6 12 14 11 11 9 8 8 7 6 6 9 5 3 4 2 0 0 0 0 -0 -1 -1 -1 -1 -1 -1 -1 -1 -1 -1 -1 -1 -1 -1 -1 -1 -1 -1 -1 -1 -1 -1 -1 -1 -1 -1
2 6 12 13 13 10 9 8 7 9 8 7 6 9 8 3 1 1 1 0 1 0 0 -0 -1 -1 -1 -1 -1 -1 -1 -1 -1 -1 -1 -1 -1 -1 -1 -1 -1 -1 -1 -1 -1 -1 -1 -1 -1
7 7 13 15 13 10 8 7 7 8 7 7 8 8 7 3 2 1 1 1 0 0 0 0 -1 -1 -1 -1 -1 -1 -1 -1 -1 -1 -1 -1 -1 -1 -1 -1 -1 -1 -1 -1 -1 -1 -1 -1 -1
8 10 13 13 12 11 9 6 8 8 8 8 5 9 7 4 2 1 1 0 0 0 -0 0 0 -1 -1 -1 -1 -1 -1 -1 -1 -1 -1 -1 -1 -1 -1 -1 -1 -1 -1 -1 -1 -1 -1 -2 -1
7 9 12 12 13 12 8 7 6 7 8 4 4 9 9 4 2 1 1 1 1 0 0 1 0 0 1 0 -1 -1 -1 -1 -1 -1 -1 -1 -1 -1 -1 -1 -1 -1 -1 -1 -1 -1 -1 -2 -1
4 11 13 12 12 10 7 8 6 5 7 5 5 5 4 2 2 2 2 2 2 1 1 1 0 0 0 0 -0 -1 -1 -1 -1 -1 -1 0 -0 -0 -1 -1 -1 -1 -1 -1 -2 -1 -1 -1 -1
8 11 10 8 8 9 7 8 7 7 7 7 6 4 3 3 3 4 4 4 3 2 2 1 1 0 0 -0 0 0 -0 -0 0 -0 -0 -0 0 0 -1 -1 -1 -1 -1 -1 -1 -1 -1 -1 -0
8 11 7 7 7 6 8 8 6 8 9 7 7 6 4 4 4 4 3 3 3 2 1 1 1 0 0 0 0 1 1 1 0 0 0 1 1 1 0 0 0 0 -1 -0 -0 0 -0 1 -0
9 7 6 6 6 7 8 6 7 7 7 5 5 4 4 4 4 4 4 3 2 2 3 2 2 1 0 2 1 1 1 1 0 1 1 0 1 1 1 1 0 1 1 0 0 1 1 0 -0
7 6 6 5 6 7 6 7 7 7 5 4 4 4 5 4 4 3 3 2 2 2 2 2 2 1 0 2 1 1 1 1 1 1 0 0 1 2 1 0 1 1 1 0 1 0 1 0 1
9 6 6 6 6 6 8 8 7 7 5 5 5 5 5 4 4 3 3 3 2 2 2 2 2 2 2 1 1 1 1 1 2 1 1 2 3 1 1 1 1 1 0 1 0 1 1 1 0
9 8 7 7 7 8 7 10 9 6 5 6 6 5 5 4 3 4 4 3 2 2 2 3 2 1 0 1 1 1 1 0 2 1 1 2 1 1 1 1 1 0 0 0 1 0 0 0 0
8 9 11 8 7 7 7 13 8 6 6 7 6 6 5 4 4 3 3 3 2 2 3 1 0 0 1 1 2 1 1 1 2 1 1 0 1 2 1 1 1 0 1 0 1 1 1 1 1
11 13 11 9 7 7 8 11 8 6 7 7 7 6 5 5 4 3 3 3 2 2 2 2 1 1 1 1 0 1 1 1 1 1 1 0 1 1 1 1 1 0 1 1 1 1 1 1 1
15 13 12 11 8 8 10 10 9 7 7 7 7 6 6 5 4 3 3 2 2 2 2 2 1 1 1 1 1 1 1 2 1 1 1 1 0 1 1 1 1 1 1 1 1 1 1 1 1
12 12 12 10 7 9 10 10 10 8 8 8 7 7 6 5 4 4 2 2 2 2 2 1 2 2 1 2 2 2 3 3 2 1 1 1 1 0 1 1 1 1 1 1 1 1 1 2 3
12 12 11 10 8 9 10 10 8 8 8 7 7 7 6 5 5 4 3 3 3 2 2 1 2 1 1 2 2 2 2 1 2 1 1 1 1 1 1 1 1 1 1 1 1 2 2 2 3
13 11 11 11 9 9 10 12 10 8 7 7 6 6 5 5 5 4 4 3 3 3 2 2 2 1 2 2 1 1 2 3 2 2 2 1 1 1 1 1 1 1 1 1 2 2 2 4 2
16 10 9 10 11 14 10 15 12 10 9 8 7 7 6 5 4 4 4 3 3 3 2 1 1 1 2 2 1 2 3 4 3 3 2 1 1 1 0 1 1 1 1 2 2 2 1 2 4
12 10 9 9 12 12 12 14 12 11 11 10 8 7 6 5 4 4 4 3 3 3 2 1 1 1 2 1 1 2 3 3 3 2 2 2 1 1 1 1 1 1 1 2 3 4 3 2 3
9 11 12 12 12 17 11 14 12 13 11 9 8 7 6 5 5 4 3 3 3 3 2 2 2 2 1 1 1 2 3 2 2 2 2 2 1 1 1 0 1 1 2 2 3 3 4 4 3
12 15 18 18 18 16 13 13 11 9 8 8 8 7 6 5 5 5 4 4 3 3 2 2 2 2 1 1 1 1 2 2 2 2 2 2 2 1 1 1 1 1 1 1 3 3 4 4 4
13 15 18 20 19 17 14 15 12 8 7 7 6 6 6 5 5 4 4 3 3 3 3 2 2 2 2 1 2 2 1 2 2 2 2 2 2 2 1 1 1 1 1 2 2 4 4 5 4
13 15 13 17 18 17 16 12 9 8 9 8 7 6 6 5 5 4 4 3 3 3 3 2 2 2 2 1 1 2 2 2 2 1 1 1 2 1 1 1 1 1 1 2 3 4 4 5 4
11 12 15 17 20 20 17 16 14 11 10 9 8 7 6 5 5 4 4 3 3 3 2 2 2 2 2 1 1 1 1 2 2 2 2 2 2 2 1 1 1 2 2 2 3 4 5 6 5
12 15 16 15 16 17 19 15 10 9 9 9 8 7 6 5 5 4 4 3 3 2 2 2 2 2 2 1 1 1 1 1 2 2 2 2 2 2 1 1 1 2 2 3 3 4 6 6 6
11 12 14 16 17 17 17 15 10 8 8 8 7 6 6 5 5 4 4 3 3 3 3 2 2 2 2 1 1 1 1 1 1 2 2 2 2 1 1 1 1 2 2 3 3 4 5 7 7